Weather Roundup
Issued by NWS Springfield, MO

Home | Current Version | Previous Version | Text Only | Print | Product List | Glossary On
Versions: 1 2 3 4 5 6 7 8 9 10 11 12 13 14 15 16 17 18 19 20 21 22 23 24 25 26 27 28 29 30 31 32 33 34 35 36 37 38 39 40 41 42 43 44 45 46 47 48 49 50
000
NZUS99 KSGF 020007
HRRSGF

HOURLY WEATHER
NATIONAL WEATHER SERVICE SPRINGFIELD MO
700 PM CDT FRI AUG 01 2014

......SGF CWA......

CITY           SKY/WX    TMP DP  RH WIND       PRES   REMARKS
SPRINGFIELD    MOSUNNY   80  62  54 NE3       30.05S
6HR MIN TEMP:  76; 6HR MAX TEMP:  85;

JOPLIN         SUNNY     82  61  48 S7        30.04F
6HR MIN TEMP:  78; 6HR MAX TEMP:  85;

WEST PLAINS    SUNNY     79  63  57 S5        30.07S
6HR MIN TEMP:  75; 6HR MAX TEMP:  83;

ROLLA          PTSUNNY   78  59  51 NE10      30.06S
6HR MIN TEMP:  78; 6HR MAX TEMP:  85;

OSAGE BEACH      N/A     81  63  54 NE6       30.05R
BRANSON        SUNNY     82  64  54 CALM      30.06

......SURROUNDING SGF CWA......

CITY           SKY/WX    TMP DP  RH WIND       PRES   REMARKS
CHANUTE        SUNNY     82  63  52 S7        30.03F
PARSONS        SUNNY     83  63  50 S7        30.04F
COFFEYVILLE    SUNNY     82  63  52 SW8       30.03S
EMPORIA        SUNNY     83  64  52 S14       30.01S
GROVE OK       SUNNY     82  63  51 CALM      30.05S
ROGERS AR      SUNNY     80  61  52 E3        30.06F
SILOAM SPRINGS SUNNY     81  57  44 CALM      30.06S
HARRISON AR    MOSUNNY   78  64  61 E5        30.06F
NEAR YELLVILLE SUNNY     79  64  61 SE3       30.05S

......KANSAS AND MISSOURI......

CITY           SKY/WX    TMP DP  RH WIND       PRES   REMARKS
KANSAS CTY INT SUNNY     82  61  48 E9        30.04F
DOWNTOWN KC    SUNNY     83  62  49 NE12      30.03S
COLUMBIA       PTSUNNY   80  61  52 E12       30.06F
SEDALIA        CLOUDY    81  61  50 NE8       30.06S
ST JOSEPH      SUNNY     82  61  48 E7        30.04F
ST LOUIS       CLOUDY    76  66  71 NE7       30.07F
SPIRIT OF STL  CLOUDY    70  67  90 CALM      30.06S
KIRKSVILLE     SUNNY     82  60  47 CALM      30.07S
WICHITA        MOSUNNY   86  60  41 SE9       30.00F
TOPEKA         SUNNY     86  62  44 E12       30.01S
OLATHE         SUNNY     81  61  50 SE6       30.04S

......TENNESSEE......

CITY           SKY/WX    TMP DP  RH WIND       PRES   REMARKS
MEMPHIS        MOSUNNY   83  61  47 E6        30.00F
NASHVILLE      MOCLDY    83  62  49 SE5       30.03R

......ARKANSAS.......

CITY           SKY/WX    TMP DP  RH WIND       PRES   REMARKS
FAYETTEVILLE   SUNNY     78  63  59 SE3       30.05F
FT SMITH       SUNNY     80  67  64 S3        30.02F
LITTLE ROCK    CLOUDY    74  68  81 SE3       30.03S

......OKLAHOMA.......

CITY           SKY/WX    TMP DP  RH WIND       PRES   REMARKS
TULSA          MOSUNNY   82  63  52 NE7       30.02F
PONCA CITY     SUNNY     83  64  52 S7        30.02F
MCALESTER      SUNNY     79  66  64 SE3       30.03F
OKLAHOMA CITY  PTSUNNY   83  63  50 SE3       30.04F

......IOWA............

CITY           SKY/WX    TMP DP  RH WIND       PRES   REMARKS
DES MOINES     MOSUNNY   82  58  43 E6        30.05F
QUAD CITIES    PTSUNNY   76  68  76 SW5       30.06R

......ILLINOIS........

CITY           SKY/WX    TMP DP  RH WIND       PRES   REMARKS
QUINCY         PTSUNNY   74  64  71 S6        30.06F
CHICAGO        PTSUNNY   73  56  54 S10       30.07S



USA.gov is the U.S. government's official web portal to all federal, state and local government web resources and services.